This is the latest recevied weather packets stored in our database for station/object F6BIJ-13. If no packets are shown the sender has not sent any weather packets the latest 10 day(s).
| Time | Temp. | Humidity | Pressure | Rain* | Wind** | Luminosity | Snow |
|---|---|---|---|---|---|---|---|
| 1778042198 | 11.11° C | 97% | 1008.6 hPa | 2.79 mm | - | - | - |
| 1778041837 | 10.56° C | 97% | 1008.6 hPa | 3.3 mm | - | - | - |
| 1778041477 | 10° C | 97% | 1008.8 hPa | 3.05 mm | - | - | - |
| 1778041117 | 10° C | 97% | 1008.7 hPa | 2.54 mm | - | - | - |
| 1778040757 | 10.56° C | 97% | 1008.7 hPa | 1.78 mm | - | - | - |
| 1778040401 | 10.56° C | 97% | 1008.8 hPa | 1.02 mm | - | - | - |
| 1778037157 | 10° C | 97% | 1008.9 hPa | 0 mm | - | - | - |
| 1778036797 | 10° C | 97% | 1008.9 hPa | 0 mm | - | - | - |
| 1778036437 | 10° C | 96% | 1008.8 hPa | 0 mm | - | - | - |
| 1778036077 | 10° C | 96% | 1008.8 hPa | 0 mm | - | - | - |
| 1778035717 | 10° C | 96% | 1008.9 hPa | 0 mm | - | - | - |
| 1778035357 | 10° C | 97% | 1008.8 hPa | 0 mm | - | - | - |
| 1778034997 | 10° C | 96% | 1008.9 hPa | 0 mm | - | - | - |
| 1778034637 | 10° C | 97% | 1009.1 hPa | 0 mm | - | - | - |
| 1778034277 | 10° C | 97% | 1008.9 hPa | 0 mm | - | - | - |
| 1778033917 | 10° C | 97% | 1009 hPa | 0 mm | - | - | - |
| 1778033556 | 10° C | 97% | 1009 hPa | 0 mm | - | - | - |
| 1778033197 | 10° C | 96% | 1009.1 hPa | 0 mm | - | - | - |
| 1778032837 | 10° C | 97% | 1009.2 hPa | 0 mm | - | - | - |
| 1778032477 | 10° C | 97% | 1009.3 hPa | 0 mm | - | - | - |
| 1778032117 | 10° C | 96% | 1009.4 hPa | 0 mm | - | - | - |
| 1778031757 | 10° C | 97% | 1009.4 hPa | 0 mm | - | - | - |
| 1778031037 | 10° C | 97% | 1009.4 hPa | 0 mm | - | - | - |
| 1778030677 | 10° C | 96% | 1009.7 hPa | 0 mm | - | - | - |
| 1778030316 | 10° C | 96% | 1009.8 hPa | 0 mm | - | - | - |
* Rain latest 24 hours (hover to see other rain measurements)
** Current wind speed in m/s (hover to see current wind gust speed)